Other Surface Observations
Issued by NWS Charleston, SC

Home | Current Version | Previous Version | Text Only | Print | Product List | Glossary On
Versions: 1 2 3 4 5 6 7 8 9 10 11 12 13 14 15 16 17 18 19 20 21 22 23 24 25 26 27 28 29 30 31 32 33 34 35 36 37 38 39 40 41 42 43 44 45 46 47 48 49 50
395
SXUS52 KCHS 282213
OSOCHS

MARINE OBSERVATIONS
NATIONAL WEATHER SERVICE CHARLESTON SC
600 PM EDT THU JUL 28 2016

...DOWNTOWN CHARLESTON AND HARBOR...

CITY           SKY/WX    TMP DP  RH WIND       PRES   REMARKS
WATERFRONT PRK   N/A     89  79  72 S9        29.92F HX 104

...LAKE MOULTRIE...

CITY           SKY/WX    TMP DP  RH WIND       PRES   REMARKS
PINOPOLIS        N/A     95  72  46 SW12      29.83F HX 103

...LAKE AND SUPPLEMENTAL COASTAL OBSERVATIONS...

STATION/POSITION TIME  TEMP    WIND        PRES    WAVE   SWELL
                       AIR SEA DIR/SP/G            HT/PER HT/PER/DIR
                 (UTC) (F)     (DEG/KT/KT) (MB)    (FT/S) (FT/S/D)
FORT PULASKI     2100   90 88  170/  8/ 17 1014.8F
SAPELO ISLAND    2100   92     160/ 14     1015.0S
WINYAH BAY       2045   89     190/ 14     1013.0
LAKE MURRAY      2100   94     230/ 11/ 18 1011.5F
ACE BASIN NERRS  NOT AVBL


...C-MAN AND BUOY OBSERVATIONS...

STATION/POSITION TIME  TEMP    WIND        PRES    WAVE   SWELL
                       AIR SEA DIR/SP/G            HT/PER HT/PER/DIR
                 (UTC) (F)     (DEG/KT/KT) (MB)    (FT/S) (FT/S/D)
BUOY 41004       2150   87 86  210/ 16/ 17 1013.6F   3/ 5   2/150/ 8
BUOY 41008       2150   87 87  160/ 14/ 16 1014.3F   2/ 4   2/110/ 8
FOLLY BEACH CMAN 2200   87     200/ 17/ 20 1014.1F
CAPERS NS BUOY   2108   86 85  220/ 17/ 23 1013.7F
FRIPP NS BUOY    2108   87 87  190/ 16/ 21 1013.3F
5E ST. MARYS GA  2201      86                N/A     2/ 3


STATION/POSITION TIME  TEMP    WIND        PRES    WAVE   SWELL
                       AIR SEA DIR/SP/G            HT/PER HT/PER/DIR
                 (UTC) (F)     (DEG/KT/KT) (MB)    (FT/S) (FT/S/D)
FRYING PAN BUOY  2100   86 85  220/ 16/ 17 1013.1F
BUOY 41025       2150   87 86  230/ 16/ 17 1011.5S   3/ 5   2/210/ 6
CAPE LOOKOUT NC  2200   87     220/ 10/ 14 1011.5F
BUOY 41002       2150   84 85  230/ 12/ 12 1015.1S   3/ 6   3/250/ 6
BUOY 41010       2120   86 88  260/  4/  6 1017.5
ST AUGUSTINE FL  2200   85 86  120/ 12/ 13 1016.7R

$$




USA.gov is the U.S. government's official web portal to all federal, state and local government web resources and services.